CAPE
0 0 0 0 0 0 0 0 0 0 0 0 0 0 0 6 67 782 620 400 740 936 580 620 902 868 657 511 270 135 47 15 12 17 18 2 1 0 2 1 0 0 0
0 0 0 0 0 0 0 0 0 0 0 0 0 0 0 0 3 94 672 776 456 717 708 633 916 927 957 759 543 334 174 65 14 18 26 7 2 4 1 1 0 0 0
0 0 0 0 0 0 0 0 0 0 0 0 0 0 0 0 0 1 235 528 536 415 501 1021 1231 966 963 944 801 562 472 124 34 26 19 15 6 9 7 3 2 4 6
0 0 0 0 0 0 0 0 0 0 0 0 0 0 0 0 0 0 8 147 262 285 414 546 1045 1284 1153 964 943 894 643 184 50 29 20 17 10 7 8 12 14 11 21
0 0 0 0 0 0 0 0 0 0 0 0 0 0 0 0 0 0 0 1 103 311 257 403 593 805 1208 1201 1047 892 774 375 158 53 33 18 12 5 5 7 21 24 32
0 0 0 0 0 0 0 0 0 0 0 0 0 0 0 0 0 0 0 0 1 152 314 245 645 790 736 1192 1315 1135 976 707 267 86 52 16 18 10 18 42 48 55 36
0 0 0 0 0 0 0 0 0 0 0 0 0 0 0 0 0 0 0 0 0 12 266 254 374 858 970 769 879 1271 1238 960 499 150 72 65 16 27 35 70 63 43 31
0 0 0 0 0 0 0 0 0 0 0 0 0 0 0 0 0 52 25 19 0 6 39 247 271 544 864 948 808 542 713 1126 651 293 178 99 53 29 62 76 68 28 33
0 0 0 0 0 0 0 0 0 0 0 0 14 11 4 0 5 2 24 154 199 134 128 229 255 284 617 734 608 405 174 478 444 744 260 158 138 91 67 61 59 44 12
0 0 0 0 0 0 0 0 0 0 10 10 42 26 16 0 3 1 0 0 0 30 153 206 293 344 437 686 439 408 243 173 247 660 551 290 158 115 75 60 64 10 1
0 0 0 0 0 0 0 0 0 8 43 61 66 64 39 12 3 22 4 0 3 10 0 2 193 351 425 452 223 211 147 117 162 262 274 266 213 104 83 83 19 8 0
0 0 0 0 0 0 0 0 0 5 33 70 64 68 62 19 1 20 59 20 75 49 2 2 2 184 411 451 202 123 91 148 103 138 221 227 103 75 74 28 16 4 0
0 0 0 0 0 0 0 0 0 0 13 52 45 47 51 31 25 13 27 18 32 1 39 3 2 5 4 441 227 111 74 123 85 112 94 55 56 35 19 19 13 1 0
0 0 0 0 0 0 0 0 0 0 0 15 21 23 21 8 20 18 25 45 13 30 46 4 3 4 6 112 261 115 151 156 78 23 17 10 9 13 12 11 2 0 0
0 0 0 0 0 0 0 0 0 0 0 0 2 7 4 1 3 9 24 63 76 31 20 18 3 0 2 43 177 141 104 115 83 3 7 13 12 13 13 4 1 0 0
18 15 4 0 0 0 0 0 0 0 0 0 0 0 0 2 5 13 87 171 134 76 54 0 2 2 3 1 1 0 0 5 17 21 23 21 20 17 10 4 0 1 3
11 13 9 12 2 0 0 0 0 0 0 0 0 0 0 3 10 22 63 63 71 100 58 3 2 3 1 0 0 1 0 2 16 38 39 28 21 16 9 4 2 1 1
7 2 3 2 5 2 0 0 0 0 0 0 0 0 2 8 6 23 37 26 27 35 15 2 1 3 2 1 0 1 2 6 15 45 57 41 27 18 14 8 6 3 2
5 6 7 6 7 7 1 1 0 0 1 1 2 5 11 10 22 35 31 34 112 94 3 2 2 2 2 1 0 0 8 13 17 45 50 45 37 24 18 10 7 10 4
14 17 20 17 33 28 0 0 0 3 8 8 5 10 13 29 25 15 49 129 81 0 0 0 1 2 3 2 0 0 0 0 1 1 19 39 35 40 38 21 16 11 9
20 20 17 15 21 22 20 19 17 15 14 8 7 11 27 19 18 55 98 87 2 2 3 2 0 1 0 1 0 0 0 0 0 0 0 1 0 0 0 25 14 6 4
4 8 14 17 15 14 22 34 16 1 4 5 6 5 5 16 52 113 106 31 0 0 5 0 2 0 1 0 0 0 0 0 2 2 0 1 1 1 0 27 27 20 15
1 1 4 8 10 8 26 39 37 28 3 3 5 11 17 22 45 41 82 57 7 6 1 2 2 0 0 0 0 0 1 1 0 2 2 3 2 1 0 10 23 19 21
9 2 1 2 3 5 15 27 40 32 14 3 11 8 11 18 42 13 0 1 1 1 1 4 1 0 0 0 0 0 1 2 2 2 1 4 1 0 0 1 19 27 18
6 6 5 2 5 1 7 19 9 5 3 3 3 4 6 1 17 8 0 3 5 18 44 31 34 35 30 20 6 3 3 4 4 2 1 2 1 2 1 0 0 2 19
17 16 14 14 23 14 42 27 10 7 8 10 1 8 24 24 28 13 3 3 3 4 4 3 5 20 24 26 16 0 0 3 2 4 0 0 0 0 3 0 0 0 1
CIN
-0 -0 -0 -0 -0 -0 -0 -0 -0 -0 -0 -0 -0 -0 -0 -0 -50 -0 -1 -4 -2 -1 -0 -0 -0 -0 -0 -0 -0 -0 -2 -0 -0 -0 -0 -0 -0 -0 -0 -0 -0 -0 -0
-0 -0 -0 -0 -0 -0 -0 -0 -0 -0 -0 -0 -0 -0 -0 -0 -0 -13 -0 -0 -8 -0 -0 -0 -0 -0 -0 -0 -0 -0 -0 -1 -0 -0 -0 -0 -0 -0 -0 -0 -0 -0 -0
-0 -0 -0 -0 -0 -0 -0 -0 -0 -0 -0 -0 -0 -0 -0 -0 -0 -0 -1 -0 -0 -2 -1 -0 -0 -0 -0 -0 -0 -0 -0 -0 -4 -3 -0 -0 -0 -0 -0 -0 -0 -0 -1
-0 -0 -0 -0 -0 -0 -0 -0 -0 -0 -0 -0 -0 -0 -0 -0 -0 -0 -0 -1 -0 -0 -0 -0 -0 -0 -0 -0 -0 -0 -0 -0 -1 -5 -0 -0 -0 -0 -0 -0 -0 -0 -0
-0 -0 -0 -0 -0 -0 -0 -0 -0 -0 -0 -0 -0 -0 -0 -0 -0 -0 -0 -0 -6 -0 -0 -8 -1 -2 -0 -0 -0 -0 -0 -0 -0 -0 -0 -0 -0 -0 -0 -0 -0 -0 -0
-0 -0 -0 -0 -0 -0 -0 -0 -0 -0 -0 -0 -0 -0 -0 -0 -0 -0 -0 -0 -0 -16 -0 -11 -0 -0 -5 -0 -0 -0 -0 -0 -0 -0 -0 -1 -0 -0 -0 -0 -0 -0 -0
-0 -0 -0 -0 -0 -0 -0 -0 -0 -0 -0 -0 -0 -0 -0 -0 -0 -0 -0 -0 -0 -12 -4 -5 -11 -0 -0 -5 -1 -0 -0 -0 -0 -0 -2 -0 -0 -0 -0 -0 -0 -0 -0
-0 -0 -0 -0 -0 -0 -0 -0 -0 -0 -0 -0 -0 -0 -0 -0 -0 -1 -0 -1 -0 -0 -29 -6 -16 -3 -0 -0 -2 -17 -1 -0 -0 -3 -1 -5 -0 -0 -0 -0 -0 -0 -0
-0 -0 -0 -0 -0 -0 -0 -0 -0 -0 -0 -0 -14 -2 -0 -0 -0 -1 -1 -0 -0 -1 -2 -5 -8 -21 -1 -0 -0 -8 -43 -0 -13 -1 -0 -0 -0 -0 -0 -0 -0 -0 -0
-0 -0 -0 -0 -0 -0 -0 -0 -0 -0 -24 -9 -1 -10 -5 -0 -0 -0 -0 -0 -0 -6 -0 -2 -0 -2 -4 -0 -1 -6 -28 -29 -26 -0 -3 -0 -0 -0 -0 -0 -0 -0 -0
-0 -0 -0 -0 -0 -0 -0 -0 -0 -29 -26 -14 -3 -0 -1 -0 -0 -0 -0 -0 -62 -40 -34 -0 -4 -0 -0 -3 -10 -19 -18 -32 -25 -0 -12 -0 -2 -0 -0 -0 -0 -0 -0
-0 -0 -0 -0 -0 -0 -0 -0 -0 -37 -28 -21 -11 -2 -0 -0 -0 -0 -0 -0 -13 -14 -0 -0 -0 -0 -0 -0 -14 -37 -26 -5 -22 -8 -0 -0 -0 -1 -0 -0 -0 -0 -0
-0 -0 -0 -0 -0 -0 -0 -0 -0 -0 -37 -24 -18 -10 -3 -0 -0 -0 -0 -0 -0 -1 -12 -11 -0 -0 -26 -0 -7 -51 -51 -21 -6 -1 -0 -5 -1 -1 -0 -0 -0 -0 -0
-0 -0 -0 -0 -0 -0 -0 -0 -0 -0 -0 -35 -27 -22 -10 -3 -0 -0 -0 -6 -0 -0 -41 -28 -0 -0 -0 -16 -2 -56 -16 -7 -10 -32 -2 -3 -0 -0 -0 -0 -0 -0 -0
-0 -0 -0 -0 -0 -0 -0 -0 -0 -0 -0 -0 -50 -25 -16 -3 -0 -0 -0 -6 -12 -0 -0 -24 -0 -0 -0 -32 -0 -16 -20 -4 -11 -0 -0 -0 -0 -0 -0 -0 -0 -0 -0
-0 -0 -0 -0 -0 -0 -0 -0 -0 -0 -0 -0 -0 -0 -0 -6 -1 -0 -3 -0 -0 -0 -0 -0 -0 -0 -0 -0 -0 -0 -0 -0 -0 -0 -0 -0 -0 -0 -0 -0 -0 -0 -0
-0 -0 -0 -0 -0 -0 -0 -0 -0 -0 -0 -0 -0 -0 -0 -5 -0 -0 -5 -20 -17 -1 -0 -0 -0 -0 -0 -0 -0 -0 -1 -0 -0 -0 -0 -0 -0 -0 -0 -0 -0 -0 -0
-0 -0 -0 -0 -1 -0 -0 -0 -0 -0 -0 -0 -0 -0 -0 -0 -0 -0 -0 -1 -0 -2 -2 -0 -0 -0 -0 -0 -0 -0 -0 -1 -1 -0 -0 -0 -0 -0 -0 -0 -0 -0 -0
-0 -0 -1 -0 -1 -1 -0 -0 -0 -0 -0 -0 -0 -0 -0 -0 -0 -0 -0 -8 -18 -4 -10 -0 -0 -0 -0 -0 -0 -0 -0 -0 -1 -0 -0 -0 -0 -0 -0 -0 -0 -0 -0
-0 -0 -0 -0 -0 -0 -0 -0 -0 -6 -2 -0 -0 -0 -0 -0 -0 -0 -40 -5 -7 -0 -0 -0 -0 -0 -0 -0 -0 -0 -0 -0 -0 -0 -0 -0 -0 -0 -0 -0 -0 -0 -0
-0 -0 -0 -0 -0 -0 -0 -0 -0 -0 -0 -0 -3 -0 -0 -0 -1 -62 -17 -1 -0 -0 -0 -0 -0 -0 -0 -0 -0 -0 -0 -0 -0 -0 -0 -0 -0 -0 -0 -0 -0 -0 -0
-0 -0 -0 -0 -0 -0 -0 -0 -0 -0 -0 -0 -0 -0 -0 -6 -88 -6 -7 -42 -0 -0 -0 -0 -0 -0 -0 -0 -0 -0 -0 -0 -0 -0 -0 -0 -0 -0 -0 -0 -0 -0 -0
-0 -0 -0 -0 -0 -0 -0 -0 -0 -0 -0 -1 -0 -0 -0 -0 -0 -42 -4 -19 -0 -0 -0 -0 -0 -0 -0 -0 -0 -0 -0 -0 -0 -0 -0 -0 -0 -0 -0 -0 -0 -0 -0
-0 -0 -0 -0 -0 -0 -0 -0 -0 -1 -0 -0 -0 -0 -1 -3 -28 -1 -0 -0 -0 -0 -0 -0 -0 -0 -0 -0 -0 -0 -0 -0 -0 -0 -0 -0 -0 -0 -0 -0 -0 -0 -0
-0 -0 -0 -0 -0 -0 -0 -0 -0 -0 -0 -0 -0 -0 -0 -0 -0 -0 -0 -0 -0 -0 -0 -0 -0 -0 -0 -0 -0 -0 -0 -0 -0 -0 -0 -0 -0 -0 -0 -0 -0 -0 -0
-0 -0 -0 -0 -0 -0 -0 -0 -0 -0 -0 -0 -0 -0 -0 -0 -0 -0 -0 -0 -0 -0 -0 -0 -0 -0 -0 -0 -0 -0 -0 -0 -0 -0 -0 -0 -0 -0 -0 -0 -0 -0 -0
Wind_Speed
5 4 4 4 4 4 6 8 8 9 9 10 10 11 12 13 13 6 6 17 24 25 25 25 25 24 24 23 22 21 20 19 18 16 16 14 11 10 8 7 5 4 3
4 5 5 4 5 4 4 5 7 7 8 9 10 11 12 12 14 14 8 10 20 22 23 27 26 27 26 25 24 23 21 21 20 18 18 15 14 12 10 9 8 7 3
6 6 5 5 4 4 5 5 6 6 7 9 11 10 11 12 12 14 10 7 11 19 22 29 28 27 28 28 26 24 22 22 21 21 19 17 15 13 12 10 9 8 5
8 8 6 7 5 5 4 4 5 6 6 7 10 11 10 11 14 15 13 11 8 9 15 28 28 28 28 29 29 26 24 24 23 22 21 19 17 15 14 12 10 9 8
9 8 8 8 8 6 5 5 6 5 6 7 9 10 11 12 13 13 17 16 15 11 10 16 23 27 29 29 30 29 27 26 25 23 22 20 18 16 15 13 12 11 8
11 10 8 10 8 8 8 7 8 7 7 7 8 11 10 11 11 12 14 14 14 15 12 14 12 14 28 29 29 31 28 28 27 25 23 22 20 18 16 15 13 11 8
10 9 8 9 8 8 9 9 8 10 9 6 7 9 9 14 16 14 13 13 15 14 14 13 11 9 12 29 29 30 32 33 31 28 25 24 22 20 18 16 12 11 9
11 9 10 9 9 8 10 10 9 7 8 6 6 8 9 9 10 10 12 12 16 10 13 13 14 16 13 11 19 29 30 33 31 27 28 26 24 21 19 15 12 12 12
13 10 11 10 9 8 9 11 10 11 10 9 9 5 6 6 11 8 12 10 13 10 11 12 13 15 17 13 14 19 28 25 26 31 28 28 26 22 18 14 13 14 11
14 13 12 12 11 9 12 11 10 10 9 10 7 7 10 9 6 9 8 9 10 8 11 10 10 11 14 11 14 14 20 25 24 31 38 30 24 21 17 14 16 15 11
13 15 13 14 13 9 12 13 12 11 9 10 9 7 8 7 11 10 12 11 7 8 5 8 10 9 13 9 7 11 16 20 18 18 19 32 24 21 17 21 18 13 11
10 13 14 13 13 12 12 12 13 13 11 11 10 9 9 8 8 8 9 12 8 7 3 5 8 7 8 8 9 11 16 20 21 19 18 17 16 15 23 22 17 15 12
10 12 14 13 11 13 13 12 12 12 12 11 12 9 10 10 10 10 10 12 11 9 7 4 5 7 4 9 7 13 16 19 19 20 20 18 20 26 23 19 17 15 12
13 15 14 15 16 16 14 13 10 11 12 11 14 11 10 10 10 10 11 10 11 10 3 4 4 5 6 6 7 14 9 19 21 19 19 27 27 26 23 20 17 16 13
13 16 17 16 16 16 15 13 11 13 13 13 13 12 11 10 10 10 11 10 8 8 7 3 4 5 5 5 7 7 7 17 21 30 30 29 27 25 22 21 19 17 14
16 16 16 16 16 16 16 15 12 14 13 12 11 13 12 10 10 10 10 9 9 9 8 2 2 5 4 7 12 12 15 25 30 28 27 28 27 26 23 21 20 17 14
15 16 16 16 15 15 16 15 15 14 14 14 13 12 14 12 10 10 9 7 6 7 6 1 3 5 5 16 12 15 15 16 16 27 25 26 24 25 23 21 20 16 15
15 14 15 12 15 14 14 15 15 14 13 14 13 13 13 10 14 13 10 11 9 9 3 6 5 4 6 6 17 20 14 13 14 24 27 25 23 23 24 22 19 18 15
15 15 14 14 13 14 13 15 15 15 14 14 14 14 13 13 14 11 12 11 10 9 7 7 6 3 5 4 15 13 15 15 13 25 26 25 24 21 24 19 20 16 12
14 14 13 13 13 13 12 13 12 12 13 13 14 14 13 12 13 14 13 14 7 8 11 8 10 5 4 6 8 12 15 11 11 10 18 18 19 20 22 20 17 18 15
13 13 12 12 11 11 10 12 12 14 12 14 13 12 11 12 19 17 7 4 13 10 9 11 8 6 6 5 7 8 14 12 10 6 9 8 7 7 8 14 14 15 11
13 11 11 11 11 8 15 19 14 10 11 11 10 10 12 17 18 19 16 22 19 16 14 11 9 8 8 9 7 8 10 8 7 4 6 6 5 8 6 7 15 14 13
7 8 8 8 9 10 17 17 17 8 10 9 10 9 9 9 14 11 13 24 21 19 14 12 15 12 13 9 11 9 10 8 8 5 7 8 7 8 7 8 17 17 16
14 4 3 7 8 8 16 14 13 7 8 10 10 9 8 7 5 11 20 21 17 16 14 13 13 13 13 10 10 10 10 10 9 7 4 7 7 7 7 8 17 16 14
18 19 18 18 12 6 13 11 6 9 8 3 7 11 9 12 31 34 25 23 20 18 27 32 29 26 25 22 15 10 9 9 9 5 4 6 3 7 7 7 7 13 16
18 16 19 21 31 21 32 30 21 12 17 15 18 19 31 24 33 37 22 22 21 16 18 18 17 20 19 17 18 10 8 9 11 8 4 5 4 0 4 5 7 7 6
Wind_Direction
341 340 352 354 359 354 356 345 341 338 330 326 321 314 310 304 292 271 236 231 231 230 227 231 234 228 225 222 222 220 217 215 213 211 206 202 199 201 202 202 210 212 245
297 314 325 334 335 344 341 335 336 333 326 321 314 311 305 302 299 288 261 231 232 238 238 238 231 228 229 223 221 220 219 216 216 212 208 208 205 206 208 208 217 238 224
296 295 295 301 308 316 316 320 322 322 323 322 316 310 301 297 295 289 281 256 248 247 241 242 234 229 229 227 221 221 217 217 216 213 213 210 211 210 213 216 222 235 228
285 282 281 279 284 277 271 283 290 306 312 317 317 313 304 294 288 285 280 273 247 247 235 238 233 229 226 229 224 218 216 216 217 214 214 211 212 214 218 220 227 235 236
279 274 274 281 282 278 277 275 282 284 301 310 307 308 300 291 284 278 276 269 264 244 245 240 237 231 225 223 228 221 215 214 214 216 214 212 212 212 220 224 226 232 232
285 290 288 289 287 276 278 280 285 284 280 288 299 301 291 288 282 271 264 263 257 252 239 243 236 233 225 222 223 226 217 214 209 213 215 212 209 213 220 225 227 232 225
275 272 271 274 273 270 272 274 283 284 281 271 295 298 290 282 268 261 256 250 253 253 243 235 238 237 220 219 218 223 221 214 205 204 213 214 211 213 218 226 226 211 184
254 246 246 248 252 260 264 264 260 266 262 257 279 294 299 308 265 278 256 245 241 241 245 232 231 231 224 216 219 220 221 231 209 205 205 210 212 211 217 220 204 190 180
281 265 267 266 273 272 272 272 270 260 270 261 241 256 290 293 328 290 321 278 258 238 238 235 228 230 228 221 221 223 224 228 201 209 207 207 210 210 209 210 191 180 147
277 274 263 263 262 268 267 265 263 253 253 259 241 238 247 271 287 305 297 303 296 290 275 233 229 227 226 225 217 219 217 208 221 218 208 202 200 208 199 184 167 143 139
276 275 269 267 262 257 257 254 255 241 237 245 246 245 243 257 263 263 276 283 298 291 253 290 234 220 221 214 207 202 209 209 207 212 212 208 188 193 177 154 144 138 124
274 268 267 265 266 261 255 248 251 244 239 237 243 239 242 249 259 265 265 270 290 298 299 289 282 235 204 209 206 192 198 198 199 193 195 177 178 167 149 139 138 132 119
270 262 259 260 261 258 255 251 251 246 243 236 238 233 236 243 250 259 262 269 278 280 301 228 261 274 273 207 201 194 199 197 188 177 165 162 156 141 136 135 133 121 109
268 266 258 252 259 259 253 248 250 248 246 240 239 234 235 240 241 249 256 267 276 281 217 288 310 261 251 224 202 188 200 197 172 157 152 132 133 132 129 129 118 107 97
263 264 260 256 256 254 252 248 247 248 245 241 240 234 232 239 241 249 253 246 250 271 267 174 262 296 261 200 179 184 183 186 165 139 133 132 132 127 127 116 107 100 97
267 265 259 257 257 253 252 252 247 243 242 240 239 235 231 237 245 249 247 239 238 249 283 60 348 302 276 105 126 108 108 106 114 115 122 125 124 119 115 111 105 101 99
274 269 262 257 257 247 252 251 246 245 238 241 237 238 238 240 254 256 256 258 245 259 259 171 86 335 358 112 98 94 92 97 102 108 113 111 111 110 106 100 95 90 80
264 259 258 252 247 249 246 243 246 240 233 241 239 239 241 244 255 251 252 249 245 247 176 171 73 317 54 71 103 103 94 92 105 110 103 95 97 96 95 92 90 86 80
260 254 248 244 237 235 236 244 238 240 244 243 239 241 245 250 247 244 246 238 234 231 161 163 115 19 50 130 88 78 105 98 91 98 99 102 97 99 97 89 81 72 79
261 255 250 246 239 231 226 227 230 235 235 243 247 247 246 234 240 244 237 233 207 146 141 134 111 100 86 60 82 116 89 78 78 68 75 77 78 73 75 79 73 69 58
264 255 252 250 246 230 222 223 222 224 233 241 245 241 233 244 244 241 233 193 139 138 132 130 128 124 106 115 93 107 96 96 73 74 75 50 56 44 37 69 66 62 58
247 241 243 239 237 244 232 233 218 219 221 227 233 229 236 240 239 234 238 164 151 144 148 130 134 128 93 107 101 95 95 100 106 31 80 58 38 50 18 67 67 61 57
202 214 224 231 233 229 238 237 236 216 201 213 222 228 223 224 237 239 246 167 157 138 136 135 119 106 99 95 95 82 78 79 82 82 95 76 63 58 27 37 55 48 45
46 77 219 229 229 228 234 235 231 218 190 202 217 222 221 224 205 105 92 81 74 76 87 94 94 97 95 84 84 94 101 95 90 71 60 87 70 67 59 45 43 45 42
39 41 39 40 56 190 213 207 115 87 81 108 213 222 231 123 116 110 99 100 101 103 103 103 103 102 103 105 108 113 105 112 105 93 69 95 91 95 76 62 51 44 39
49 49 51 46 49 58 81 85 82 80 76 70 64 75 96 105 107 105 106 109 105 99 94 87 81 82 84 95 95 95 116 117 123 110 84 98 129 196 93 52 43 35 33